Rickmers Seoul — V7EI5 — position and weather

sailwx.info

Track history (hours):
 
Tides and Currents Weather Stations Pressure Air Temp Water Temp Dewpoint Dewpoint Depression Visibility Wind Speed Wind Dir Waves Ship Positions

Rickmers Seoul

Last reported at 2014-Nov-29 03:29 UTC. Time now 2014-Nov-29 03:41 UTC.
Position N 32°05' W 081°04'.

Length 192.9 m; beam 27.8 m; draft 11.2 m.

Type: Ship (hazmat cat A). MMSI: 538001809.

Date/timePositionNaut miles runAvg speedWind from/ knotsBaromVisibWave heightAir tempDewpointWater temp
2014-Nov-29 03:29N 32°05' W 081°04'0 0.0
2014-Nov-29 02:32N 32°05' W 081°04'0 0.0
2014-Nov-29 01:32N 32°05' W 081°04'0 0.0
2014-Nov-29 00:32N 32°05' W 081°04'0 0.0
2014-Nov-28 23:32N 32°05' W 081°04'0 0.0
2014-Nov-28 22:32N 32°05' W 081°04'0 0.0
2014-Nov-28 21:32N 32°05' W 081°04'0 0.0
2014-Nov-28 19:20N 32°05' W 081°04'0 0.0
2014-Nov-28 18:20N 32°05' W 081°04'0 0.0
2014-Nov-28 16:20N 32°05' W 081°04'0 0.0
2014-Nov-28 15:23N 32°05' W 081°04'0 0.0
2014-Nov-28 14:32N 32°05' W 081°04'0 0.0
2014-Nov-28 13:23N 32°05' W 081°04'0 0.0
2014-Nov-28 12:23N 32°05' W 081°04'0 0.0
2014-Nov-28 11:32N 32°05' W 081°04'0 0.0
2014-Nov-28 10:32N 32°05' W 081°04'0 0.0
2014-Nov-28 09:32N 32°05' W 081°04'4 4.3
2014-Nov-28 08:33N 32°05' W 080°59'23811.3
2014-Nov-27 11:33N 28°18' W 079°39'1513.0
2014-Nov-27 10:22N 28°02' W 079°39'1012.8
2014-Nov-27 09:33N 27°52' W 079°40'1613.1
2014-Nov-27 08:22N 27°36' W 079°40'3813.5
2014-Nov-27 05:31N 26°58' W 079°42'1413.7
2014-Nov-27 04:30N 26°44' W 079°44'1313.6
2014-Nov-27 03:33N 26°32' W 079°46'1413.6
2014-Nov-27 02:33N 26°18' W 079°48'1413.8
2014-Nov-27 01:33N 26°04' W 079°49'1414.4
2014-Nov-27 00:33N 25°50' W 079°51'1614.1
2014-Nov-26 23:27N 25°35' W 079°53'  
2014-Nov-24 15:30N 29°41' W 089°58'7 0.8
2014-Nov-24 06:30N 29°47' W 090°01'10 8.3
2014-Nov-24 05:18N 29°55' W 089°55'8 9.9
2014-Nov-24 04:32N 29°57' W 090°04'2 0.1
2014-Nov-23 10:33N 29°55' W 090°05'0 0.0
2014-Nov-23 08:09N 29°55' W 090°05'0 0.0
2014-Nov-23 03:24N 29°55' W 090°05'0 0.0
2014-Nov-23 02:12N 29°55' W 090°05'0 0.0
2014-Nov-23 01:27N 29°55' W 090°05'0 0.0
2014-Nov-23 00:33N 29°55' W 090°05'0 0.0
2014-Nov-22 22:15N 29°55' W 090°05'0 0.0
2014-Nov-22 20:30N 29°55' W 090°05'0 0.0
2014-Nov-22 08:33N 29°55' W 090°05'2 2.3
2014-Nov-22 07:33N 29°57' W 090°04'250 6.7
2014-Nov-20 18:30N 29°22' W 094°48'1010.6
2014-Nov-20 17:33N 29°31' W 094°53'1010.3
2014-Nov-20 16:33N 29°41' W 094°59'8 7.7
2014-Nov-20 15:34N 29°46' W 095°05'5 5.5
2014-Nov-20 14:33N 29°45' W 095°12'4 4.3
2014-Nov-20 13:33N 29°44' W 095°16'  
Track history (hours):
 
Tides and Currents Weather Stations Pressure Air Temp Water Temp Dewpoint Dewpoint Depression Visibility Wind Speed Wind Dir Waves Ship Positions

Rickmers Seoul

Last reported at 2014-Nov-29 03:29 UTC. Time now 2014-Nov-29 03:41 UTC.
Position N 32°05' W 081°04'.

Length 192.9 m; beam 27.8 m; draft 11.2 m.

Type: Ship (hazmat cat A). MMSI: 538001809.

Date/timePositionNaut miles runAvg speedWind from/ knotsBaromVisibWave heightAir tempDewpointWater temp
2014-Nov-29 03:29N 32°05' W 081°04'0 0.0
2014-Nov-29 02:32N 32°05' W 081°04'0 0.0
2014-Nov-29 01:32N 32°05' W 081°04'0 0.0
2014-Nov-29 00:32N 32°05' W 081°04'0 0.0
2014-Nov-28 23:32N 32°05' W 081°04'0 0.0
2014-Nov-28 22:32N 32°05' W 081°04'0 0.0
2014-Nov-28 21:32N 32°05' W 081°04'0 0.0
2014-Nov-28 19:20N 32°05' W 081°04'0 0.0
2014-Nov-28 18:20N 32°05' W 081°04'0 0.0
2014-Nov-28 16:20N 32°05' W 081°04'0 0.0
2014-Nov-28 15:23N 32°05' W 081°04'0 0.0
2014-Nov-28 14:32N 32°05' W 081°04'0 0.0
2014-Nov-28 13:23N 32°05' W 081°04'0 0.0
2014-Nov-28 12:23N 32°05' W 081°04'0 0.0
2014-Nov-28 11:32N 32°05' W 081°04'0 0.0
2014-Nov-28 10:32N 32°05' W 081°04'0 0.0
2014-Nov-28 09:32N 32°05' W 081°04'4 4.3
2014-Nov-28 08:33N 32°05' W 080°59'23811.3
2014-Nov-27 11:33N 28°18' W 079°39'1513.0
2014-Nov-27 10:22N 28°02' W 079°39'1012.8
2014-Nov-27 09:33N 27°52' W 079°40'1613.1
2014-Nov-27 08:22N 27°36' W 079°40'3813.5
2014-Nov-27 05:31N 26°58' W 079°42'1413.7
2014-Nov-27 04:30N 26°44' W 079°44'1313.6
2014-Nov-27 03:33N 26°32' W 079°46'1413.6
2014-Nov-27 02:33N 26°18' W 079°48'1413.8
2014-Nov-27 01:33N 26°04' W 079°49'1414.4
2014-Nov-27 00:33N 25°50' W 079°51'1614.1
2014-Nov-26 23:27N 25°35' W 079°53'  
2014-Nov-24 15:30N 29°41' W 089°58'7 0.8
2014-Nov-24 06:30N 29°47' W 090°01'10 8.3
2014-Nov-24 05:18N 29°55' W 089°55'8 9.9
2014-Nov-24 04:32N 29°57' W 090°04'2 0.1
2014-Nov-23 10:33N 29°55' W 090°05'0 0.0
2014-Nov-23 08:09N 29°55' W 090°05'0 0.0
2014-Nov-23 03:24N 29°55' W 090°05'0 0.0
2014-Nov-23 02:12N 29°55' W 090°05'0 0.0
2014-Nov-23 01:27N 29°55' W 090°05'0 0.0
2014-Nov-23 00:33N 29°55' W 090°05'0 0.0
2014-Nov-22 22:15N 29°55' W 090°05'0 0.0
2014-Nov-22 20:30N 29°55' W 090°05'0 0.0
2014-Nov-22 08:33N 29°55' W 090°05'2 2.3
2014-Nov-22 07:33N 29°57' W 090°04'250 6.7
2014-Nov-20 18:30N 29°22' W 094°48'1010.6
2014-Nov-20 17:33N 29°31' W 094°53'1010.3
2014-Nov-20 16:33N 29°41' W 094°59'8 7.7
2014-Nov-20 15:34N 29°46' W 095°05'5 5.5
2014-Nov-20 14:33N 29°45' W 095°12'4 4.3
2014-Nov-20 13:33N 29°44' W 095°16'  

Dump ship's entire track history